| time (UTC) | temp C | wind direction | speed KPH | gust KPH | rain 1hr cm | rain 24hr cm | rain mn cm | humidity % | barometer mb |
| 20260831170418 | 24 | 135 | 0.0 | 9.7 | 0.00 | 0.28 | 0.28 | 88 | 1020.4 |
| 20260831165914 | 24 | 89 | 8.0 | 9.7 | 0.00 | 0.28 | 0.28 | 89 | 1020.4 |
| 20260831165410 | 24 | 86 | 4.8 | 11.3 | 0.00 | 0.28 | 0.28 | 89 | 1020.4 |
| 20260831164906 | 23 | 94 | 8.0 | 12.9 | 0.00 | 0.28 | 0.28 | 90 | 1020.4 |
| 20260831164402 | 23 | 76 | 4.8 | 8.0 | 0.00 | 0.28 | 0.28 | 91 | 1020.4 |
| 20260831163857 | 23 | 87 | 4.8 | 8.0 | 0.00 | 0.28 | 0.28 | 91 | 1020.3 |
| 20260831163353 | 23 | 86 | 6.4 | 11.3 | 0.00 | 0.28 | 0.28 | 92 | 1020.2 |
| 20260831162851 | 23 | 72 | 8.0 | 11.3 | 0.05 | 0.28 | 0.28 | 92 | 1020.4 |
| 20260831162347 | 23 | 53 | 4.8 | 11.3 | 0.05 | 0.28 | 0.28 | 92 | 1020.3 |
| 20260831161845 | 22 | 73 | 4.8 | 12.9 | 0.00 | 0.28 | 0.28 | 92 | 1020.1 |
| 20260831161342 | 22 | 62 | 4.8 | 11.3 | 0.00 | 0.28 | 0.28 | 92 | 1020.1 |
| 20260831160838 | 22 | 21 | 6.4 | 8.0 | 0.05 | 0.28 | 0.28 | 92 | 1020.3 |
| 20260831160337 | 22 | 31 | 3.2 | 11.3 | 0.13 | 0.28 | 0.28 | 92 | 1019.9 |
| 20260831155832 | 22 | 18 | 4.8 | 6.4 | 0.18 | 0.28 | 0.28 | 92 | 1020.0 |
| 20260831155332 | 22 | 23 | 1.6 | 6.4 | 0.23 | 0.25 | 0.25 | 91 | 1020.0 |
| 20260831154828 | 22 | 71 | 4.8 | 11.3 | 0.23 | 0.23 | 0.23 | 91 | 1020.1 |
| 20260831154324 | 22 | 118 | 1.6 | 8.0 | 0.13 | 0.20 | 0.20 | 90 | 1020.1 |
| 20260831153823 | 22 | 79 | 8.0 | 17.7 | 0.13 | 0.18 | 0.18 | 90 | 1019.8 |
| 20260831153319 | 22 | 99 | 4.8 | 14.5 | 0.23 | 0.18 | 0.18 | 89 | 1020.0 |
| 20260831152815 | 23 | 68 | 4.8 | 8.0 | 0.30 | 0.18 | 0.18 | 88 | 1020.0 |
| 20260831152310 | 23 | 96 | 4.8 | 8.0 | 0.30 | 0.15 | 0.15 | 88 | 1020.0 |
| 20260831151805 | 23 | 80 | 3.2 | 8.0 | 0.36 | 0.13 | 0.13 | 86 | 1020.1 |
| 20260831151304 | 23 | 50 | 3.2 | 3.2 | 0.30 | 0.10 | 0.10 | 85 | 1020.3 |
| 20260831150759 | 23 | 201 | 3.2 | 8.0 | 0.23 | 0.05 | 0.05 | 83 | 1020.2 |
| 20260831150255 | 24 | 160 | 4.8 | 11.3 | 0.13 | 0.03 | 0.03 | 82 | 1020.3 |
| 20260831145754 | 24 | 74 | 3.2 | 8.0 | 0.05 | 0.03 | 0.03 | 81 | 1020.1 |
| 20260831145250 | 24 | 70 | 4.8 | 11.3 | 0.00 | 0.00 | 0.00 | 80 | 1019.8 |
| 20260831144746 | 24 | 189 | 1.6 | 12.9 | 0.00 | 0.00 | 0.00 | 80 | 1019.9 |
| 20260831144242 | 25 | 53 | 3.2 | 8.0 | 0.00 | 0.00 | 0.00 | 79 | 1019.8 |
| 20260831143742 | 25 | 149 | 6.4 | 11.3 | 0.00 | 0.00 | 0.00 | 79 | 1019.4 |
| 20260831143237 | 25 | 158 | 6.4 | 8.0 | 0.00 | 0.00 | 0.00 | 79 | 1019.5 |
| 20260831142732 | 25 | 95 | 1.6 | 6.4 | 0.00 | 0.00 | 0.00 | 79 | 1019.5 |
| 20260831142228 | 25 | 149 | 1.6 | 12.9 | 0.00 | 0.00 | 0.00 | 78 | 1019.5 |
| 20260831141727 | 25 | 76 | 3.2 | 8.0 | 0.00 | 0.00 | 0.00 | 78 | 1019.1 |
| 20260831141222 | 25 | 60 | 1.6 | 9.7 | 0.00 | 0.00 | 0.00 | 76 | 1018.9 |
| 20260831140722 | 25 | 168 | 3.2 | 14.5 | 0.05 | 0.00 | 0.00 | 76 | 1019.0 |
| 20260831140216 | 25 | 262 | 3.2 | 16.1 | 0.00 | 0.00 | 0.00 | 75 | 1019.0 |
| 20260831135714 | 26 | 87 | 3.2 | 14.5 | 0.00 | 0.00 | 0.00 | 71 | 1018.6 |
| 20260831135210 | 26 | 131 | 3.2 | 8.0 | 0.00 | 0.00 | 0.00 | 68 | 1018.4 |
| 20260831134706 | 26 | 134 | 1.6 | 4.8 | 0.00 | 0.00 | 0.00 | 68 | 1018.3 |
| 20260831134201 | 26 | 156 | 4.8 | 12.9 | 0.00 | 0.00 | 0.00 | 67 | 1017.9 |
| 20260831133700 | 26 | 169 | 3.2 | 11.3 | 0.00 | 0.00 | 0.00 | 68 | 1017.7 |
| 20260831133155 | 26 | 155 | 6.4 | 9.7 | 0.00 | 0.00 | 0.00 | 71 | 1017.7 |
| 20260831132651 | 26 | 160 | 3.2 | 4.8 | 0.00 | 0.00 | 0.00 | 71 | 1017.7 |
| 20260831132150 | 26 | 142 | 3.2 | 6.4 | 0.00 | 0.00 | 0.00 | 71 | 1017.6 |
| 20260831131645 | 26 | 216 | 1.6 | 6.4 | 0.00 | 0.00 | 0.00 | 71 | 1017.6 |
| 20260831131142 | 26 | 126 | 1.6 | 8.0 | 0.00 | 0.00 | 0.00 | 71 | 1017.2 |
| 20260831130636 | 26 | 162 | 0.0 | 6.4 | 0.00 | 0.00 | 0.00 | 72 | 1017.0 |
| 20260831130132 | 25 | 115 | 3.2 | 4.8 | 0.00 | 0.00 | 0.00 | 74 | 1017.1 |
| 20260831125630 | 25 | 127 | 1.6 | 8.0 | 0.00 | 0.00 | 0.00 | 73 | 1017.0 |
| 20260831125126 | 25 | 150 | 4.8 | 8.0 | 0.00 | 0.00 | 0.00 | 73 | 1017.0 |
| 20260831124622 | 26 | 161 | 4.8 | 8.0 | 0.00 | 0.00 | 0.00 | 72 | 1016.9 |
| 20260831124118 | 26 | 146 | 0.0 | 4.8 | 0.00 | 0.00 | 0.00 | 72 | 1016.8 |
| 20260831123618 | 26 | 208 | 0.0 | 8.0 | 0.00 | 0.00 | 0.00 | 72 | 1016.9 |
| 20260831123117 | 26 | 143 | 6.4 | 11.3 | 0.00 | 0.00 | 0.00 | 71 | 1017.1 |
| 20260831122617 | 26 | 202 | 3.2 | 8.0 | 0.00 | 0.00 | 0.00 | 71 | 1016.7 |
| 20260831122113 | 26 | 183 | 1.6 | 6.4 | 0.00 | 0.00 | 0.00 | 71 | 1016.6 |
| 20260831121612 | 26 | 165 | 1.6 | 4.8 | 0.00 | 0.00 | 0.00 | 71 | 1016.6 |
| 20260831121109 | 26 | 107 | 0.0 | 4.8 | 0.00 | 0.00 | 0.00 | 71 | 1016.7 |
| 20260831120609 | 26 | 160 | 1.6 | 4.8 | 0.00 | 0.00 | 0.00 | 72 | 1016.3 |
| 20260831120104 | 26 | 199 | 0.0 | 3.2 | 0.00 | 0.00 | 0.00 | 72 | 1016.4 |
| 20260831115559 | 26 | 223 | 0.0 | 3.2 | 0.00 | 0.00 | 0.00 | 71 | 1016.2 |
| 20260831115055 | 26 | 141 | 0.0 | 4.8 | 0.00 | 0.00 | 0.00 | 71 | 1016.5 |
| 20260831114553 | 26 | 230 | 0.0 | 1.6 | 0.00 | 0.00 | 0.00 | 71 | 1016.2 |
| 20260831114048 | 26 | 215 | 1.6 | 4.8 | 0.00 | 0.00 | 0.00 | 69 | 1016.1 |
| 20260831113548 | 26 | 290 | 0.0 | 1.6 | 0.00 | 0.00 | 0.00 | 67 | 1016.1 |
| 20260831113044 | 26 | 156 | 0.0 | 1.6 | 0.00 | 0.00 | 0.00 | 66 | 1016.1 |
| 20260831112543 | 26 | 149 | 1.6 | 3.2 | 0.00 | 0.00 | 0.00 | 65 | 1016.2 |
| 20260831112038 | 26 | 230 | 0.0 | 1.6 | 0.00 | 0.00 | 0.00 | 64 | 1015.8 |
| 20260831111534 | 26 | 166 | 0.0 | 1.6 | 0.00 | 0.00 | 0.00 | 63 | 1016.1 |
| 20260831111029 | 26 | 83 | 3.2 | 8.0 | 0.00 | 0.00 | 0.00 | 62 | 1016.0 |
| 20260831110525 | 26 | 104 | 4.8 | 6.4 | 0.00 | 0.00 | 0.00 | 63 | 1015.8 |
| 20260831110020 | 26 | 93 | 3.2 | 17.7 | 0.00 | 0.00 | 0.00 | 63 | 1015.6 |
| 20260831105519 | 26 | 92 | 11.3 | 11.3 | 0.00 | 0.00 | 0.00 | 63 | 1015.4 |
| 20260831105014 | 26 | 72 | 4.8 | 9.7 | 0.00 | 0.00 | 0.00 | 63 | 1015.4 |
| 20260831104510 | 26 | 77 | 3.2 | 8.0 | 0.00 | 0.00 | 0.00 | 62 | 1015.3 |
| 20260831104006 | 26 | 77 | 6.4 | 9.7 | 0.00 | 0.00 | 0.00 | 61 | 1014.8 |
| 20260831103501 | 26 | 88 | 4.8 | 8.0 | 0.00 | 0.00 | 0.00 | 61 | 1014.9 |
| 20260831102956 | 27 | 31 | 3.2 | 6.4 | 0.00 | 0.00 | 0.00 | 60 | 1014.9 |
| 20260831102450 | 26 | 12 | 6.4 | 8.0 | 0.00 | 0.00 | 0.00 | 61 | 1014.7 |
| 20260831101945 | 26 | 86 | 4.8 | 6.4 | 0.00 | 0.00 | 0.00 | 61 | 1014.8 |
| 20260831101440 | 26 | 70 | 3.2 | 6.4 | 0.00 | 0.00 | 0.00 | 61 | 1014.7 |
| 20260831100937 | 26 | 96 | 3.2 | 8.0 | 0.00 | 0.00 | 0.00 | 61 | 1014.8 |
| 20260831100432 | 26 | 55 | 0.0 | 0.0 | 0.00 | 0.00 | 0.00 | 62 | 1014.6 |
| 20260831095927 | 26 | 114 | 1.6 | 3.2 | 0.00 | 0.00 | 0.00 | 61 | 1014.9 |
| 20260831095426 | 26 | 92 | 3.2 | 6.4 | 0.00 | 0.00 | 0.00 | 61 | 1014.7 |
| 20260831094921 | 26 | 111 | 3.2 | 6.4 | 0.00 | 0.00 | 0.00 | 61 | 1014.9 |
| 20260831094418 | 26 | 85 | 11.3 | 12.9 | 0.00 | 0.00 | 0.00 | 62 | 1015.2 |
| 20260831093914 | 26 | 32 | 0.0 | 4.8 | 0.00 | 0.00 | 0.00 | 63 | 1015.3 |
| 20260831093408 | 26 | 65 | 3.2 | 9.7 | 0.00 | 0.00 | 0.00 | 62 | 1015.3 |
| 20260831092905 | 26 | 80 | 4.8 | 9.7 | 0.00 | 0.00 | 0.00 | 63 | 1015.2 |
| 20260831092400 | 26 | 36 | 4.8 | 11.3 | 0.00 | 0.00 | 0.00 | 64 | 1015.2 |
| 20260831091855 | 26 | 81 | 11.3 | 19.3 | 0.00 | 0.00 | 0.00 | 65 | 1015.3 |
| 20260831091350 | 26 | 84 | 4.8 | 11.3 | 0.00 | 0.00 | 0.00 | 64 | 1015.4 |
| 20260831090846 | 26 | 33 | 6.4 | 25.7 | 0.00 | 0.00 | 0.00 | 65 | 1015.7 |
| 20260831090336 | 26 | 80 | 8.0 | 20.9 | 0.00 | 0.00 | 0.00 | 67 | 1015.4 |
| 20260831085832 | 26 | 102 | 8.0 | 20.9 | 0.00 | 0.00 | 0.00 | 68 | 1015.4 |
| 20260831085327 | 26 | 91 | 8.0 | 20.9 | 0.00 | 0.00 | 0.00 | 67 | 1015.4 |
| 20260831084827 | 26 | 70 | 9.7 | 12.9 | 0.00 | 0.00 | 0.00 | 67 | 1015.3 |
| 20260831084323 | 26 | 61 | 6.4 | 12.9 | 0.00 | 0.00 | 0.00 | 67 | 1015.4 |
| 20260831083819 | 26 | 75 | 14.5 | 19.3 | 0.00 | 0.00 | 0.00 | 67 | 1015.5 |
| 20260831083314 | 26 | 109 | 0.0 | 8.0 | 0.00 | 0.00 | 0.00 | 69 | 1015.6 |
| 20260831082813 | 26 | 102 | 3.2 | 8.0 | 0.00 | 0.00 | 0.00 | 68 | 1015.6 |
| 20260831082308 | 26 | 79 | 8.0 | 11.3 | 0.00 | 0.00 | 0.00 | 68 | 1015.4 |
| 20260831081803 | 26 | 33 | 4.8 | 6.4 | 0.00 | 0.00 | 0.00 | 67 | 1015.7 |
| 20260831081259 | 27 | 10 | 3.2 | 9.7 | 0.00 | 0.00 | 0.00 | 67 | 1015.8 |
| 20260831080754 | 27 | 66 | 6.4 | 11.3 | 0.00 | 0.00 | 0.00 | 66 | 1016.1 |
| 20260831080249 | 27 | 29 | 6.4 | 12.9 | 0.00 | 0.00 | 0.00 | 66 | 1016.0 |
| 20260831075745 | 27 | 27 | 8.0 | 22.5 | 0.00 | 0.00 | 0.00 | 65 | 1015.7 |
| 20260831075235 | 27 | 50 | 6.4 | 14.5 | 0.00 | 0.00 | 0.00 | 66 | 1015.8 |
| 20260831074734 | 27 | 16 | 6.4 | 11.3 | 0.00 | 0.00 | 0.00 | 68 | 1015.5 |
| 20260831074228 | 27 | 28 | 6.4 | 9.7 | 0.00 | 0.00 | 0.00 | 68 | 1015.5 |
| 20260831073724 | 27 | 8 | 4.8 | 11.3 | 0.00 | 0.00 | 0.00 | 68 | 1015.4 |
| 20260831073223 | 27 | 0 | 3.2 | 9.7 | 0.00 | 0.00 | 0.00 | 68 | 1015.4 |
| 20260831072718 | 27 | 349 | 8.0 | 16.1 | 0.00 | 0.00 | 0.00 | 67 | 1015.6 |
| 20260831072215 | 27 | 326 | 11.3 | 14.5 | 0.00 | 0.00 | 0.00 | 66 | 1015.6 |
| 20260831071715 | 27 | 313 | 4.8 | 17.7 | 0.00 | 0.00 | 0.00 | 66 | 1015.6 |
| 20260831071209 | 27 | 333 | 6.4 | 20.9 | 0.00 | 0.00 | 0.00 | 66 | 1015.7 |
| 20260831070708 | 27 | 313 | 6.4 | 14.5 | 0.00 | 0.00 | 0.00 | 66 | 1015.5 |
| 20260831070202 | 27 | 329 | 12.9 | 17.7 | 0.00 | 0.00 | 0.00 | 66 | 1015.0 |
| 20260831065702 | 27 | 6 | 4.8 | 17.7 | 0.00 | 0.23 | 0.23 | 65 | 1014.8 |
| 20260831065200 | 28 | 308 | 11.3 | 17.7 | 0.00 | 0.23 | 0.23 | 63 | 1014.8 |
| 20260831064655 | 28 | 19 | 6.4 | 16.1 | 0.00 | 0.23 | 0.23 | 60 | 1015.1 |
| 20260831064151 | 28 | 353 | 11.3 | 17.7 | 0.00 | 0.23 | 0.23 | 59 | 1014.8 |
| 20260831063647 | 28 | 4 | 9.7 | 19.3 | 0.00 | 0.23 | 0.23 | 59 | 1014.5 |
| 20260831063142 | 29 | 23 | 8.0 | 12.9 | 0.00 | 0.23 | 0.23 | 56 | 1014.8 |
| 20260831062643 | 29 | 343 | 6.4 | 14.5 | 0.00 | 0.23 | 0.23 | 56 | 1014.6 |
| 20260831062142 | 29 | 356 | 4.8 | 11.3 | 0.00 | 0.23 | 0.23 | 56 | 1014.3 |
| 20260831061640 | 29 | 16 | 6.4 | 20.9 | 0.00 | 0.23 | 0.23 | 56 | 1014.4 |
| 20260831061136 | 29 | 16 | 4.8 | 8.0 | 0.00 | 0.23 | 0.23 | 54 | 1014.0 |
| 20260831060633 | 28 | 97 | 4.8 | 4.8 | 0.00 | 0.23 | 0.23 | 56 | 1013.9 |
| 20260831060132 | 30 | 79 | 4.8 | 6.4 | 0.00 | 0.23 | 0.23 | 54 | 1013.9 |
| 20260831055631 | 30 | 78 | 0.0 | 3.2 | 0.00 | 0.23 | 0.23 | 47 | 1013.6 |
| 20260831055127 | 30 | 234 | 1.6 | 8.0 | 0.00 | 0.23 | 0.23 | 47 | 1013.5 |
| 20260831054626 | 30 | 269 | 8.0 | 11.3 | 0.00 | 0.23 | 0.23 | 48 | 1013.5 |
| 20260831054126 | 29 | 233 | 4.8 | 20.9 | 0.00 | 0.23 | 0.23 | 51 | 1013.7 |
| 20260831053621 | 28 | 248 | 8.0 | 12.9 | 0.00 | 0.23 | 0.23 | 55 | 1013.8 |
| 20260831053120 | 27 | 234 | 14.5 | 17.7 | 0.00 | 0.23 | 0.23 | 60 | 1014.1 |
| 20260831052618 | 27 | 242 | 6.4 | 16.1 | 0.00 | 0.23 | 0.23 | 60 | 1014.3 |
| 20260831052118 | 26 | 259 | 11.3 | 19.3 | 0.13 | 0.23 | 0.23 | 67 | 1014.1 |
| 20260831051616 | 25 | 250 | 6.4 | 12.9 | 0.43 | 0.23 | 0.23 | 79 | 1014.3 |
| 20260831051115 | 24 | 233 | 4.8 | 9.7 | 0.97 | 0.20 | 0.20 | 82 | 1015.0 |
| 20260831050610 | 25 | 258 | 8.0 | 14.5 | 0.61 | 0.13 | 0.13 | 80 | 1015.0 |
| 20260831050109 | 25 | 229 | 4.8 | 20.9 | 0.13 | 0.05 | 0.05 | 76 | 1015.0 |
| 20260831045608 | 25 | 221 | 11.3 | 17.7 | 0.18 | 0.03 | 0.03 | 78 | 1015.1 |
| 20260831045103 | 25 | 205 | 6.4 | 19.3 | 0.13 | 0.03 | 0.03 | 77 | 1015.5 |
| 20260831044558 | 26 | 221 | 14.5 | 27.4 | 0.00 | 0.00 | 0.00 | 73 | 1015.4 |
| 20260831044053 | 26 | 212 | 8.0 | 25.7 | 0.00 | 0.00 | 0.00 | 70 | 1014.9 |
| 20260831043549 | 27 | 195 | 12.9 | 27.4 | 0.00 | 0.00 | 0.00 | 63 | 1014.7 |
| 20260831043044 | 27 | 208 | 14.5 | 33.8 | 0.00 | 0.00 | 0.00 | 67 | 1014.7 |
| 20260831042543 | 28 | 232 | 11.3 | 30.6 | 0.00 | 0.00 | 0.00 | 64 | 1014.9 |
| 20260831042039 | 30 | 215 | 4.8 | 32.2 | 0.00 | 0.00 | 0.00 | 55 | 1015.0 |
| 20260831041534 | 30 | 237 | 8.0 | 22.5 | 0.00 | 0.00 | 0.00 | 47 | 1014.4 |
| 20260831041033 | 30 | 189 | 4.8 | 17.7 | 0.00 | 0.00 | 0.00 | 48 | 1014.0 |
| 20260831040528 | 30 | 175 | 4.8 | 22.5 | 0.00 | 0.00 | 0.00 | 50 | 1014.0 |
| 20260831040027 | 30 | 238 | 22.5 | 35.4 | 0.00 | 0.00 | 0.00 | 50 | 1014.0 |
| 20260831035525 | 31 | 241 | 11.3 | 17.7 | 0.00 | 0.00 | 0.00 | 52 | 1013.7 |
| 20260831035021 | 31 | 213 | 12.9 | 33.8 | 0.00 | 0.00 | 0.00 | 50 | 1013.7 |
| 20260831034521 | 31 | 229 | 14.5 | 20.9 | 0.00 | 0.00 | 0.00 | 51 | 1013.5 |
| 20260831034016 | 32 | 222 | 12.9 | 24.1 | 0.00 | 0.00 | 0.00 | 49 | 1013.5 |
| 20260831033512 | 33 | 211 | 20.9 | 32.2 | 0.00 | 0.00 | 0.00 | 45 | 1013.4 |
| 20260831033007 | 33 | 161 | 4.8 | 16.1 | 0.00 | 0.00 | 0.00 | 45 | 1013.5 |
| 20260831032506 | 35 | 225 | 22.5 | 27.4 | 0.00 | 0.00 | 0.00 | 41 | 1013.1 |
| 20260831032002 | 37 | 219 | 4.8 | 8.0 | 0.00 | 0.00 | 0.00 | 34 | 1012.3 |
| 20260831031501 | 37 | 271 | 4.8 | 9.7 | 0.00 | 0.00 | 0.00 | 34 | 1012.3 |
| 20260831031001 | 37 | 297 | 1.6 | 4.8 | 0.00 | 0.00 | 0.00 | 35 | 1012.2 |
| 20260831030500 | 37 | 308 | 1.6 | 4.8 | 0.00 | 0.00 | 0.00 | 35 | 1012.2 |
| 20260831025958 | 37 | 327 | 3.2 | 3.2 | 0.00 | 0.00 | 0.00 | 35 | 1012.2 |
| 20260831025457 | 37 | 313 | 1.6 | 4.8 | 0.00 | 0.00 | 0.00 | 35 | 1011.9 |
| 20260831024953 | 37 | 336 | 3.2 | 3.2 | 0.00 | 0.00 | 0.00 | 34 | 1011.8 |
| 20260831024448 | 37 | 336 | 3.2 | 6.4 | 0.00 | 0.00 | 0.00 | 34 | 1012.0 |
| 20260831023942 | 37 | 318 | 3.2 | 4.8 | 0.00 | 0.00 | 0.00 | 34 | 1011.8 |
| 20260831023440 | 37 | 332 | 3.2 | 3.2 | 0.00 | 0.00 | 0.00 | 34 | 1011.8 |
| 20260831022936 | 37 | 333 | 1.6 | 8.0 | 0.00 | 0.00 | 0.00 | 34 | 1011.6 |
| 20260831022434 | 37 | 336 | 3.2 | 6.4 | 0.00 | 0.00 | 0.00 | 34 | 1011.7 |
| 20260831021929 | 37 | 321 | 3.2 | 6.4 | 0.00 | 0.00 | 0.00 | 33 | 1011.4 |
| 20260831021423 | 37 | 321 | 1.6 | 8.0 | 0.00 | 0.00 | 0.00 | 34 | 1011.2 |
| 20260831020920 | 37 | 320 | 3.2 | 4.8 | 0.00 | 0.00 | 0.00 | 34 | 1011.3 |
| 20260831020419 | 37 | 340 | 1.6 | 6.4 | 0.00 | 0.00 | 0.00 | 34 | 1011.2 |
| 20260831015914 | 37 | 0 | 1.6 | 6.4 | 0.00 | 0.00 | 0.00 | 33 | 1011.2 |
| 20260831015410 | 37 | 322 | 3.2 | 8.0 | 0.00 | 0.00 | 0.00 | 33 | 1011.1 |
| 20260831014905 | 37 | 340 | 1.6 | 4.8 | 0.00 | 0.00 | 0.00 | 33 | 1010.9 |
| 20260831014404 | 38 | 296 | 4.8 | 8.0 | 0.00 | 0.00 | 0.00 | 33 | 1010.9 |
| 20260831013900 | 38 | 308 | 3.2 | 4.8 | 0.00 | 0.00 | 0.00 | 33 | 1010.8 |
| 20260831013355 | 38 | 323 | 4.8 | 9.7 | 0.00 | 0.00 | 0.00 | 32 | 1010.9 |
| 20260831012849 | 38 | 281 | 4.8 | 9.7 | 0.00 | 0.00 | 0.00 | 32 | 1010.6 |
| 20260831012345 | 38 | 298 | 3.2 | 8.0 | 0.00 | 0.00 | 0.00 | 32 | 1011.0 |
| 20260831011845 | 38 | 312 | 3.2 | 9.7 | 0.00 | 0.00 | 0.00 | 32 | 1010.9 |
| 20260831011340 | 39 | 306 | 0.0 | 4.8 | 0.00 | 0.00 | 0.00 | 32 | 1010.6 |
| 20260831010836 | 39 | 319 | 1.6 | 6.4 | 0.00 | 0.00 | 0.00 | 32 | 1010.6 |
| 20260831010335 | 39 | 338 | 4.8 | 11.3 | 0.00 | 0.00 | 0.00 | 31 | 1011.0 |
| 20260831005831 | 39 | 343 | 1.6 | 6.4 | 0.00 | 0.00 | 0.00 | 31 | 1011.0 |
| 20260831005327 | 40 | 294 | 4.8 | 6.4 | 0.00 | 0.00 | 0.00 | 31 | 1011.1 |
| 20260831004821 | 40 | 343 | 0.0 | 3.2 | 0.00 | 0.00 | 0.00 | 31 | 1011.3 |
| 20260831004318 | 39 | 52 | 0.0 | 4.8 | 0.00 | 0.00 | 0.00 | 31 | 1011.1 |
| 20260831003813 | 40 | 129 | 0.0 | 3.2 | 0.00 | 0.00 | 0.00 | 33 | 1010.9 |
| 20260831003309 | 40 | 357 | 1.6 | 6.4 | 0.00 | 0.00 | 0.00 | 31 | 1011.1 |
| 20260831002808 | 40 | 260 | 4.8 | 6.4 | 0.00 | 0.00 | 0.00 | 29 | 1011.1 |
| 20260831002306 | 40 | 301 | 3.2 | 6.4 | 0.00 | 0.00 | 0.00 | 30 | 1011.0 |
| 20260831001759 | 39 | 338 | 4.8 | 9.7 | 0.00 | 0.00 | 0.00 | 31 | 1011.1 |
| 20260831001253 | 40 | 314 | 4.8 | 12.9 | 0.00 | 0.00 | 0.00 | 30 | 1011.0 |
| 20260831000750 | 40 | 262 | 3.2 | 8.0 | 0.00 | 0.00 | 0.00 | 31 | 1011.1 |
| 20260831000245 | 40 | 274 | 4.8 | 6.4 | 0.00 | 0.00 | 0.00 | 30 | 1011.2 |
| 20260830235744 | 40 | 269 | 0.0 | 11.3 | 0.00 | 0.00 | 0.00 | 30 | 1011.0 |
| 20260830235238 | 40 | 280 | 4.8 | 9.7 | 0.00 | 0.00 | 0.00 | 30 | 1011.2 |
| 20260830234733 | 40 | 312 | 4.8 | 11.3 | 0.00 | 0.00 | 0.00 | 30 | 1011.1 |
| 20260830234230 | 40 | 310 | 0.0 | 9.7 | 0.00 | 0.00 | 0.00 | 30 | 1011.2 |
| 20260830233725 | 40 | 318 | 4.8 | 12.9 | 0.00 | 0.00 | 0.00 | 30 | 1011.3 |
| 20260830233221 | 40 | 346 | 3.2 | 17.7 | 0.00 | 0.00 | 0.00 | 30 | 1011.4 |
| 20260830232716 | 40 | 7 | 4.8 | 8.0 | 0.00 | 0.00 | 0.00 | 30 | 1011.4 |
| 20260830232211 | 40 | 316 | 1.6 | 4.8 | 0.00 | 0.00 | 0.00 | 29 | 1011.3 |
| 20260830231708 | 40 | 176 | 1.6 | 9.7 | 0.00 | 0.00 | 0.00 | 30 | 1011.6 |
| 20260830231207 | 40 | 86 | 4.8 | 4.8 | 0.00 | 0.00 | 0.00 | 31 | 1011.7 |
| 20260830230702 | 39 | 307 | 1.6 | 12.9 | 0.00 | 0.00 | 0.00 | 30 | 1012.0 |
| 20260830230157 | 40 | 236 | 0.0 | 3.2 | 0.00 | 0.00 | 0.00 | 29 | 1011.7 |
| 20260830225651 | 40 | 282 | 3.2 | 11.3 | 0.00 | 0.00 | 0.00 | 31 | 1011.8 |
| 20260830225146 | 40 | 306 | 4.8 | 9.7 | 0.00 | 0.00 | 0.00 | 30 | 1011.9 |
| 20260830224645 | 40 | 356 | 3.2 | 8.0 | 0.00 | 0.00 | 0.00 | 30 | 1012.0 |
| 20260830224141 | 40 | 336 | 3.2 | 6.4 | 0.00 | 0.00 | 0.00 | 30 | 1012.2 |
| 20260830223638 | 40 | 246 | 6.4 | 9.7 | 0.00 | 0.00 | 0.00 | 32 | 1012.4 |
| 20260830223137 | 40 | 230 | 4.8 | 6.4 | 0.00 | 0.00 | 0.00 | 33 | 1012.0 |
| 20260830222632 | 40 | 116 | 3.2 | 3.2 | 0.00 | 0.00 | 0.00 | 31 | 1012.5 |
| 20260830222128 | 40 | 295 | 3.2 | 12.9 | 0.00 | 0.00 | 0.00 | 31 | 1012.5 |
| 20260830221623 | 40 | 206 | 3.2 | 4.8 | 0.00 | 0.00 | 0.00 | 31 | 1012.6 |
| 20260830221119 | 40 | 261 | 1.6 | 6.4 | 0.00 | 0.00 | 0.00 | 29 | 1012.6 |
| 20260830220615 | 40 | 61 | 3.2 | 8.0 | 0.00 | 0.00 | 0.00 | 31 | 1012.6 |
| 20260830220113 | 39 | 71 | 3.2 | 6.4 | 0.00 | 0.00 | 0.00 | 32 | 1012.7 |
| 20260830215612 | 40 | 84 | 3.2 | 4.8 | 0.00 | 0.00 | 0.00 | 33 | 1013.0 |
| 20260830215107 | 39 | 67 | 4.8 | 6.4 | 0.00 | 0.00 | 0.00 | 31 | 1013.1 |
| 20260830214602 | 40 | 89 | 3.2 | 8.0 | 0.00 | 0.00 | 0.00 | 32 | 1013.2 |
| 20260830214057 | 40 | 288 | 4.8 | 6.4 | 0.00 | 0.00 | 0.00 | 31 | 1013.4 |
| 20260830213551 | 40 | 331 | 4.8 | 6.4 | 0.00 | 0.00 | 0.00 | 30 | 1013.5 |
| 20260830213047 | 39 | 50 | 4.8 | 11.3 | 0.00 | 0.00 | 0.00 | 31 | 1013.5 |
| 20260830212543 | 39 | 95 | 6.4 | 12.9 | 0.00 | 0.00 | 0.00 | 31 | 1013.9 |
| 20260830212037 | 39 | 73 | 3.2 | 4.8 | 0.00 | 0.00 | 0.00 | 31 | 1014.0 |
| 20260830211532 | 38 | 199 | 4.8 | 11.3 | 0.00 | 0.00 | 0.00 | 34 | 1014.0 |
| 20260830211031 | 38 | 185 | 6.4 | 11.3 | 0.00 | 0.00 | 0.00 | 32 | 1014.2 |
| 20260830210527 | 39 | 12 | 6.4 | 9.7 | 0.00 | 0.00 | 0.00 | 31 | 1014.2 |
| 20260830210026 | 38 | 309 | 3.2 | 4.8 | 0.00 | 0.00 | 0.00 | 32 | 1014.0 |
| 20260830205524 | 38 | 75 | 3.2 | 9.7 | 0.00 | 0.00 | 0.00 | 34 | 1014.3 |
| 20260830205020 | 38 | 153 | 4.8 | 8.0 | 0.00 | 0.00 | 0.00 | 32 | 1014.2 |
| 20260830204518 | 38 | 176 | 3.2 | 9.7 | 0.00 | 0.00 | 0.00 | 33 | 1014.6 |
| 20260830204018 | 38 | 135 | 14.5 | 17.7 | 0.00 | 0.00 | 0.00 | 33 | 1014.5 |
| 20260830203514 | 38 | 276 | 4.8 | 4.8 | 0.00 | 0.00 | 0.00 | 32 | 1014.9 |
| 20260830203009 | 38 | 293 | 1.6 | 9.7 | 0.00 | 0.00 | 0.00 | 32 | 1014.7 |
| 20260830202503 | 38 | 114 | 3.2 | 4.8 | 0.00 | 0.00 | 0.00 | 35 | 1014.8 |
| 20260830202000 | 38 | 24 | 1.6 | 8.0 | 0.00 | 0.00 | 0.00 | 34 | 1015.0 |
| 20260830201458 | 38 | 48 | 4.8 | 12.9 | 0.00 | 0.00 | 0.00 | 33 | 1015.1 |
| 20260830200954 | 38 | 228 | 0.0 | 6.4 | 0.00 | 0.00 | 0.00 | 33 | 1014.9 |
| 20260830200448 | 38 | 19 | 6.4 | 17.7 | 0.00 | 0.00 | 0.00 | 34 | 1015.2 |
| 20260830195943 | 38 | 4 | 4.8 | 11.3 | 0.00 | 0.00 | 0.00 | 34 | 1015.2 |
| 20260830195438 | 37 | 302 | 4.8 | 8.0 | 0.00 | 0.00 | 0.00 | 35 | 1015.1 |
| 20260830194936 | 37 | 301 | 8.0 | 14.5 | 0.00 | 0.00 | 0.00 | 34 | 1015.3 |
| 20260830194436 | 38 | 332 | 0.0 | 3.2 | 0.00 | 0.00 | 0.00 | 34 | 1015.3 |
| 20260830193935 | 37 | 286 | 3.2 | 11.3 | 0.00 | 0.00 | 0.00 | 35 | 1015.6 |
| 20260830193434 | 37 | 350 | 3.2 | 6.4 | 0.00 | 0.00 | 0.00 | 34 | 1015.7 |
| 20260830192930 | 37 | 245 | 3.2 | 4.8 | 0.00 | 0.00 | 0.00 | 35 | 1015.6 |
| 20260830192425 | 37 | 203 | 1.6 | 11.3 | 0.00 | 0.00 | 0.00 | 34 | 1015.8 |
| 20260830191920 | 37 | 323 | 1.6 | 6.4 | 0.00 | 0.00 | 0.00 | 37 | 1015.8 |
| 20260830191420 | 37 | 201 | 1.6 | 8.0 | 0.00 | 0.00 | 0.00 | 36 | 1016.0 |
| 20260830190916 | 37 | 255 | 1.6 | 4.8 | 0.00 | 0.00 | 0.00 | 36 | 1016.0 |
| 20260830190411 | 37 | 227 | 4.8 | 14.5 | 0.00 | 0.00 | 0.00 | 38 | 1016.3 |
| 20260830185910 | 37 | 155 | 8.0 | 14.5 | 0.00 | 0.00 | 0.00 | 35 | 1016.3 |
| 20260830185405 | 37 | 202 | 4.8 | 8.0 | 0.00 | 0.00 | 0.00 | 35 | 1016.3 |
| 20260830184900 | 37 | 59 | 4.8 | 8.0 | 0.00 | 0.00 | 0.00 | 35 | 1016.5 |
| 20260830184359 | 37 | 224 | 0.0 | 8.0 | 0.00 | 0.00 | 0.00 | 36 | 1016.3 |
| 20260830183854 | 37 | 177 | 3.2 | 8.0 | 0.00 | 0.00 | 0.00 | 39 | 1016.4 |
| 20260830183349 | 37 | 218 | 3.2 | 8.0 | 0.00 | 0.00 | 0.00 | 36 | 1016.5 |
| 20260830182844 | 36 | 261 | 4.8 | 14.5 | 0.00 | 0.00 | 0.00 | 37 | 1016.8 |
| 20260830182340 | 36 | 249 | 4.8 | 16.1 | 0.00 | 0.00 | 0.00 | 37 | 1016.9 |
| 20260830181836 | 36 | 219 | 4.8 | 8.0 | 0.00 | 0.00 | 0.00 | 38 | 1016.8 |
| 20260830181331 | 37 | 179 | 3.2 | 11.3 | 0.00 | 0.00 | 0.00 | 38 | 1017.1 |
| 20260830180830 | 37 | 129 | 1.6 | 8.0 | 0.00 | 0.00 | 0.00 | 37 | 1016.9 |
| 20260830180325 | 36 | 106 | 1.6 | 3.2 | 0.00 | 0.00 | 0.00 | 38 | 1017.1 |
| 20260830175824 | 36 | 165 | 6.4 | 16.1 | 0.00 | 0.00 | 0.00 | 37 | 1017.1 |
| 20260830175319 | 36 | 168 | 6.4 | 12.9 | 0.00 | 0.00 | 0.00 | 39 | 1017.1 |
| 20260830174814 | 36 | 166 | 8.0 | 16.1 | 0.00 | 0.00 | 0.00 | 37 | 1017.5 |
| 20260830174310 | 36 | 212 | 4.8 | 11.3 | 0.00 | 0.00 | 0.00 | 39 | 1017.2 |
| 20260830173809 | 35 | 154 | 6.4 | 12.9 | 0.00 | 0.00 | 0.00 | 39 | 1017.3 |
| 20260830173305 | 35 | 172 | 3.2 | 17.7 | 0.00 | 0.00 | 0.00 | 39 | 1017.3 |
| 20260830172801 | 35 | 204 | 4.8 | 8.0 | 0.00 | 0.00 | 0.00 | 40 | 1017.3 |
| 20260830172257 | 35 | 210 | 4.8 | 12.9 | 0.00 | 0.00 | 0.00 | 41 | 1017.3 |
| 20260830171753 | 35 | 196 | 4.8 | 12.9 | 0.00 | 0.00 | 0.00 | 39 | 1017.4 |
| 20260830171248 | 35 | 161 | 1.6 | 9.7 | 0.00 | 0.00 | 0.00 | 40 | 1017.3 |
| 20260830170742 | 35 | 191 | 8.0 | 14.5 | 0.00 | 0.00 | 0.00 | 40 | 1017.4 |